Home   Weather   Gahanna   Past weeks
Flag for USA

Past Weather in Gahanna, Ohio, USA — Yesterday and Last 2 Weeks

Now
57 °F

Clear.


Feels Like: 56 °F
Forecast: 61 / 41 °F
Wind: 6 mph from South

Location: John Glenn Columbus International Airport

Current Time: Oct 13, 2019 at 10:10:13 pm

Latest Report: Oct 13, 2019 at 8:51 pm


Visibility: 10 mi

Pressure: 29.92 "Hg

Humidity: 39%

Dew Point: 32 °F

Location of GahannaLocation

Past Weather in Gahanna — Graph

°F

Gahanna Temperature Yesterday

Maximum temperature yesterday: 58 °F (at 12:11 am)
Minimum temperature yesterday: 40 °F (at 7:43 am)
Average temperature yesterday: 48 °F

High & Low Weather Summary for the Past Weeks

 TemperatureHumidityPressure
High93 °F (Oct 1, 1:51 pm)97% (Oct 8, 12:51 am)30.30 "Hg (Oct 8, 12:51 am)
Low38 °F (Oct 13, 5:51 am)20% (Oct 13, 4:51 pm)29.85 "Hg (Oct 2, 4:51 pm)
Average65 °F67%30.09 "Hg
* Reported Sep 28 8:51 pm — Oct 13 8:51 pm, Gahanna. Weather by CustomWeather, © 2019

Note: Actual official high and low records may vary slightly from our data, if they occured in-between our weather recording intervals... More about our weather records

Advertising

Gahanna Weather History for the Previous 24 Hours

Scroll right to see more
 ConditionsComfort  
Time TempWeatherWind HumidityBarometerVisibility
8:51 pm
Sun, Oct 13
57 °FClear.6 mph39%29.92 "Hg10 mi
7:51 pm60 °FClear.8 mph31%29.91 "Hg10 mi
6:51 pm64 °FSunny.8 mph26%29.90 "Hg10 mi
5:51 pm67 °FSunny.14 mph21%29.90 "Hg10 mi
4:51 pm68 °FPassing clouds.15 mph20%29.89 "Hg10 mi
3:51 pm68 °FPassing clouds.16 mph21%29.90 "Hg10 mi
2:51 pm66 °FPassing clouds.14 mph23%29.92 "Hg10 mi
1:51 pm62 °FPassing clouds.13 mph32%29.95 "Hg10 mi
12:51 pm60 °FPassing clouds.13 mph36%29.99 "Hg10 mi
11:51 am57 °FScattered clouds.12 mph41%30.01 "Hg10 mi
10:51 am53 °FScattered clouds.7 mph55%30.03 "Hg10 mi
9:51 am46 °FScattered clouds.8 mph73%30.05 "Hg10 mi
8:51 am41 °FScattered clouds.6 mph80%30.06 "Hg10 mi
7:51 am38 °FPassing clouds.3 mph83%30.06 "Hg10 mi
6:51 am38 °FClear.5 mph79%30.05 "Hg10 mi
5:51 am38 °FClear.No wind79%30.05 "Hg10 mi
4:51 am40 °FClear.No wind70%30.06 "Hg10 mi
3:51 am41 °FClear.No wind67%30.05 "Hg10 mi
2:51 am41 °FClear.3 mph70%30.05 "Hg10 mi
1:51 am42 °FClear.3 mph65%30.07 "Hg10 mi
12:51 am44 °FClear.8 mph60%30.06 "Hg10 mi
11:51 pm
Sat, Oct 12
44 °FClear.7 mph60%30.08 "Hg10 mi
10:51 pm45 °FClear.No wind56%30.09 "Hg10 mi
Weather by CustomWeather, © 2019

See weather overview